Home > Weather > Naugarh > Past weeks

Flag for India Weather for the Past 2 Weeks in Naugarh, Uttar Pradesh, India

Now
52 °F

Fog.


Feels Like: 52 °F
Forecast: 51 / 82 °F
Wind: No wind

Location: Lucknow / Amausi

Current Time: Feb 6, 2016 at 9:13:37 AM

Latest Report: Feb 6, 2016 at 8:30 AM


Visibility: 0 mi

Pressure: 29.95 "Hg

Humidity: 94%

Dew point: 50 °F

Location of NaugarhLocation

Historic Weather in Naugarh — Graph

°F

Naugarh Temperature Yesterday

Maximum temperature yesterday: 75 °F (at 1:30 PM)
Minimum temperature yesterday: 46 °F (at 5:00 AM)
Average temperature yesterday: 60 °F

High & Low Weather Summary for the Past Weeks

 TemperatureHumidityPressure
High82 °F (Jan 31, 2:00 PM)100% (Jan 23, 2:00 AM)30.18 "Hg (Jan 23, 2:00 AM)
Low37 °F (Jan 23, 5:00 AM)29% (Feb 2, 1:30 PM)29.65 "Hg (Jan 23, 3:00 PM)
Average61 °F67%30.00 "Hg
* Reported Jan 22 6:30 AM — Feb 6 7:00 AM, Naugarh, Weather by CustomWeather, © 2016

Note: Actual official high and low records may vary slightly from our data, if they occured in-between our weather recording intervals... More about our weather records

Advertising

Naugarh Weather History for the Previous 24 Hours

 ConditionsComfort  
Time TempWeatherWind HumidityBarometerVisibility
7:00 AM
Sat, Feb 6
48 °FFog.No wind94%29.92 "Hg1 mi
6:00 AM48 °FFog.No wind94%29.92 "Hg1 mi
5:30 AM50 °FFog.No wind94%29.89 "Hg0 mi
5:00 AM50 °FFog.No wind94%29.89 "Hg1 mi
4:00 AM52 °FFog.No wind88%29.89 "Hg1 mi
3:00 AM50 °FFog.No wind94%29.89 "Hg1 mi
2:00 AM52 °FFog.No wind88%29.92 "Hg1 mi
1:00 AM52 °FFog.No wind88%29.92 "Hg1 mi
12:00 AM54 °FFog.No wind82%29.92 "Hg1 mi
11:00 PM
Fri, Feb 5
55 °FHaze.No wind77%29.95 "Hg1 mi
10:00 PM55 °FHaze.No wind77%29.95 "Hg1 mi
8:30 PM61 °FHaze.No wind63%29.95 "Hg1 mi
8:00 PM61 °FHaze.No wind63%29.95 "Hg1 mi
7:30 PM63 °FHaze.No wind59%29.95 "Hg1 mi
7:00 PM63 °FHaze.No wind59%29.92 "Hg1 mi
6:30 PM66 °FHaze.2 mph52%29.92 "Hg1 mi
5:30 PM72 °FHaze.3 mph47%29.92 "Hg2 mi
4:30 PM75 °FHaze.7 mph36%29.92 "Hg2 mi
4:00 PM75 °FHaze.3 mph36%29.92 "Hg2 mi
3:00 PM75 °FHaze.7 mph36%29.95 "Hg2 mi
2:30 PM75 °FHaze.6 mph39%29.95 "Hg2 mi
2:00 PM75 °FHaze.5 mph39%29.95 "Hg2 mi
1:30 PM75 °FHaze.5 mph39%29.98 "Hg2 mi
11:30 AM72 °FHaze.3 mph41%30.07 "Hg1 mi
10:30 AM66 °FHaze.5 mph52%30.07 "Hg1 mi
10:00 AM63 °FHaze.No wind59%30.07 "Hg1 mi
9:30 AM61 °FHaze.No wind59%30.07 "Hg1 mi
Weather by CustomWeather, © 2016

See weather overviewHow to use our weather pages